Showing default

CSIM, 43793

Orbit data source: Space-Track

CSIM, 43793 is a payload satellite owned by CU-LASP (US) in LEO that was launched on Mon, 03 Dec 2018 UTC via an FALCON 9 launch vehicle from the Air Force Western Test Range (AFWTR). Payloads include a variety of satellites, spacecraft, and rockets equipped with specific instruments for various scientific and technological missions. These include communications satellites like Starlink; space stations such as the ISS; scientific satellites like the Hubble; Earth observation satellites from companies like Planet Labs, Umbra, and HawkEye 360; GPS; miniature CubeSats for education and research; and military/defense satellites.

Loading next visibility...
CSIM details
Identifier
43793, 2018-099AM
Orbit
LEO
Last TLE update19 hours ago
Origin
Flag of USCU-LASP (US)
ManufacturerBlue Canyon
MissionOperational Amateur Astronomy
Bus & MotorCUBESAT 6U, Unknown motor
Mass10 kg wet, 10 kg dry
Launch date (UTC)
2018-12-03 (6 years ago)
Launch vehicle
FALCON 9
Launch site
Air Force Western Test Range (AFWTR)
Object type
Payload
Rocket body
Debris
Shape & HBRBox + 2 Pan, 1.3 m
Radar Cross Section0.143 m², Medium (>0.1 m² and < 1m²)

Expand to show TLE details & history

TLE from 19 hours ago
0 CSIM
1 43793U 18099AM  24346.14853983  .00048875  00000-0  15461-2 0  9994
2 43793  97.5119  50.9622 0008734  53.4195 306.7849 15.32581868329708
Epoch: 2024-12-11T03:33Z
Definitive object data (Epoch: 2024-12-11T03:33:53.841Z)
Latitude-0.00002°
Longitude-82.85952°
Altitude467.639 km
Speed7.634 km/s
True Right ascension03h 23m 50s
True Declination0° 00' 00"
Sunlit
Object was in full shadow at TLE epoch
Visualization TLE readout
Latitude62.1863°
Longitude112.35034°
Altitude476.177 km
Speed7.635 km/s
Apparent Right ascension11h 47m 37s
Apparent Declination21° 27' 20"
Sunlit
Object is in daylight
Visualization observer readout
Local Sidereal Time21:16:39
Azimuth322.884° NNW
Elevation-19.256°
Doppler factor1
Orbital elements
Apogee altitude471.043 km
Perigee altitude459.089 km
Semi-major axis6,843.203 km
Eccentricity0.0008734
Inclination97.5119°
RAAN50.9622°
Arg. of periapsis53.4195°
True anomaly306.70469°
Mean anomaly306.7849°
Eccentric anomaly306.7448°
Mean motion3.83402 °/min
BSTAR0.0015461
Orbital period93.9 mins
Loading maneuver chart data...
Loading historical data...
Loading historical data...
Loading historical data...
Loading historical data...
Loading historical data...
Loading historical data...
Loading historical data...

CSIM Visibility forecast

Observer location: undefined°, undefined

Span
Click to sort rows by Start time (UTC) header in descending order
Start Az.
Max El. time (UTC)
Max El. Az.
Max El.
End time (UTC)
End Az.
6 mins2024-12-12 04:45:34.345Z178.614° S2024-12-12 04:48:34.345Z263.08° W41.438°2024-12-12 04:51:34.345Z339.904° N
5 mins2024-12-12 17:44:34.345Z350.072° N2024-12-12 17:46:34.345Z276.346° WNW36.626°2024-12-12 17:49:34.345Z211.315° SW
|